| time (UTC) | temp C | wind direction | speed KPH | gust KPH | rain 1hr cm | rain 24hr cm | rain mn cm | humidity % | barometer mb |
| 20260510100542 | 10 | 236 | 3.2 | 11.3 | 0.00 | 0.00 | 0.00 | 89 | 1007.7 |
| 20260510100051 | 10 | 227 | 4.8 | 11.3 | 0.00 | 0.00 | 0.00 | 89 | 1007.2 |
| 20260510095542 | 10 | 205 | 3.2 | 11.3 | 0.00 | 0.00 | 0.00 | 89 | 1007.0 |
| 20260510095039 | 10 | 119 | 3.2 | 11.3 | 0.00 | 0.00 | 0.00 | 89 | 1006.9 |
| 20260510094538 | 10 | 289 | 3.2 | 9.7 | 0.00 | 0.00 | 0.00 | 90 | 1006.9 |
| 20260510094038 | 10 | 161 | 1.6 | 8.0 | 0.00 | 0.00 | 0.00 | 90 | 1007.2 |
| 20260510093537 | 10 | 232 | 3.2 | 8.0 | 0.00 | 0.00 | 0.00 | 89 | 1007.3 |
| 20260510093041 | 10 | 213 | 3.2 | 9.7 | 0.00 | 0.00 | 0.00 | 89 | 1007.3 |
| 20260510092537 | 10 | 227 | 3.2 | 9.7 | 0.00 | 0.00 | 0.00 | 89 | 1007.4 |
| 20260510092036 | 10 | 236 | 3.2 | 8.0 | 0.00 | 0.00 | 0.00 | 89 | 1007.3 |
| 20260510091537 | 10 | 235 | 1.6 | 8.0 | 0.00 | 0.00 | 0.00 | 88 | 1007.1 |
| 20260510091034 | 10 | 232 | 3.2 | 8.0 | 0.00 | 0.00 | 0.00 | 88 | 1007.1 |
| 20260510090536 | 10 | 234 | 3.2 | 6.4 | 0.00 | 0.00 | 0.00 | 88 | 1007.0 |
| 20260510090035 | 10 | 222 | 1.6 | 8.0 | 0.00 | 0.00 | 0.00 | 88 | 1006.9 |
| 20260510085532 | 10 | 240 | 1.6 | 4.8 | 0.00 | 0.00 | 0.00 | 87 | 1006.8 |
| 20260510085033 | 10 | 244 | 1.6 | 4.8 | 0.00 | 0.00 | 0.00 | 87 | 1006.9 |
| 20260510084545 | 10 | 240 | 1.6 | 9.7 | 0.00 | 0.00 | 0.00 | 87 | 1006.8 |
| 20260510084032 | 10 | 239 | 3.2 | 9.7 | 0.00 | 0.00 | 0.00 | 87 | 1006.8 |
| 20260510083534 | 11 | 229 | 4.8 | 9.7 | 0.00 | 0.00 | 0.00 | 86 | 1006.8 |
| 20260510083037 | 11 | 221 | 1.6 | 6.4 | 0.00 | 0.00 | 0.00 | 86 | 1006.7 |
| 20260510082532 | 11 | 218 | 1.6 | 6.4 | 0.00 | 0.00 | 0.00 | 86 | 1006.7 |
| 20260510082031 | 11 | 149 | 1.6 | 8.0 | 0.00 | 0.00 | 0.00 | 86 | 1006.8 |
| 20260510081535 | 11 | 289 | 1.6 | 11.3 | 0.00 | 0.00 | 0.00 | 86 | 1006.9 |
| 20260510081031 | 11 | 155 | 1.6 | 9.7 | 0.00 | 0.00 | 0.00 | 85 | 1007.0 |
| 20260510080531 | 11 | 224 | 4.8 | 9.7 | 0.00 | 0.00 | 0.00 | 85 | 1007.1 |
| 20260510080030 | 11 | 226 | 3.2 | 8.0 | 0.00 | 0.00 | 0.00 | 85 | 1007.2 |
| 20260510075530 | 11 | 182 | 1.6 | 11.3 | 0.00 | 0.00 | 0.00 | 85 | 1007.2 |
| 20260510075033 | 11 | 211 | 3.2 | 11.3 | 0.00 | 0.00 | 0.00 | 85 | 1007.1 |
| 20260510074529 | 11 | 225 | 4.8 | 11.3 | 0.00 | 0.00 | 0.00 | 84 | 1007.3 |
| 20260510074029 | 11 | 239 | 1.6 | 12.9 | 0.00 | 0.00 | 0.00 | 84 | 1007.2 |
| 20260510073529 | 11 | 182 | 3.2 | 12.9 | 0.00 | 0.00 | 0.00 | 83 | 1007.2 |
| 20260510073044 | 11 | 186 | 1.6 | 9.7 | 0.00 | 0.00 | 0.00 | 83 | 1007.0 |
| 20260510072528 | 11 | 202 | 1.6 | 17.7 | 0.00 | 0.00 | 0.00 | 82 | 1007.1 |
| 20260510072031 | 11 | 232 | 4.8 | 17.7 | 0.00 | 0.00 | 0.00 | 82 | 1007.0 |
| 20260510071529 | 11 | 261 | 4.8 | 19.3 | 0.00 | 0.00 | 0.00 | 83 | 1006.9 |
| 20260510071027 | 11 | 224 | 4.8 | 20.9 | 0.00 | 0.00 | 0.00 | 82 | 1006.8 |
| 20260510070526 | 11 | 235 | 6.4 | 20.9 | 0.00 | 0.00 | 0.00 | 82 | 1006.6 |
| 20260510070027 | 11 | 231 | 4.8 | 17.7 | 0.00 | 0.00 | 0.00 | 82 | 1006.7 |
| 20260510065526 | 11 | 226 | 4.8 | 16.1 | 0.00 | 0.00 | 0.00 | 82 | 1006.9 |
| 20260510065028 | 11 | 190 | 4.8 | 20.9 | 0.00 | 0.00 | 0.00 | 81 | 1007.1 |
| 20260510064525 | 11 | 242 | 6.4 | 20.9 | 0.00 | 0.00 | 0.00 | 81 | 1007.0 |
| 20260510064025 | 11 | 214 | 6.4 | 14.5 | 0.00 | 0.00 | 0.00 | 81 | 1007.0 |
| 20260510063524 | 11 | 227 | 4.8 | 12.9 | 0.00 | 0.00 | 0.00 | 79 | 1007.0 |
| 20260510063024 | 11 | 227 | 3.2 | 14.5 | 0.00 | 0.00 | 0.00 | 79 | 1007.0 |
| 20260510062524 | 11 | 211 | 8.0 | 19.3 | 0.00 | 0.00 | 0.00 | 79 | 1006.9 |
| 20260510062024 | 11 | 228 | 6.4 | 16.1 | 0.00 | 0.00 | 0.00 | 79 | 1007.0 |
| 20260510061524 | 11 | 204 | 6.4 | 16.1 | 0.00 | 0.00 | 0.00 | 79 | 1006.9 |
| 20260510061023 | 11 | 130 | 4.8 | 16.1 | 0.00 | 0.00 | 0.00 | 79 | 1006.9 |
| 20260510060523 | 11 | 127 | 4.8 | 11.3 | 0.00 | 0.00 | 0.00 | 79 | 1006.8 |
| 20260510060034 | 11 | 234 | 3.2 | 19.3 | 0.00 | 0.00 | 0.00 | 79 | 1006.9 |
| 20260510055522 | 11 | 192 | 6.4 | 19.3 | 0.00 | 0.00 | 0.00 | 79 | 1006.9 |
| 20260510055022 | 11 | 232 | 3.2 | 16.1 | 0.00 | 0.00 | 0.00 | 79 | 1007.0 |
| 20260510054522 | 11 | 196 | 3.2 | 12.9 | 0.00 | 0.00 | 0.00 | 78 | 1007.0 |
| 20260510054022 | 11 | 192 | 3.2 | 20.9 | 0.00 | 0.00 | 0.00 | 78 | 1007.1 |
| 20260510053521 | 11 | 196 | 8.0 | 20.9 | 0.00 | 0.00 | 0.00 | 78 | 1007.1 |
| 20260510053021 | 11 | 228 | 4.8 | 17.7 | 0.00 | 0.00 | 0.00 | 78 | 1007.1 |
| 20260510052521 | 12 | 222 | 6.4 | 24.1 | 0.00 | 0.00 | 0.00 | 78 | 1007.1 |
| 20260510052024 | 12 | 191 | 6.4 | 24.1 | 0.00 | 0.00 | 0.00 | 77 | 1007.0 |
| 20260510051521 | 12 | 342 | 6.4 | 22.5 | 0.00 | 0.00 | 0.00 | 77 | 1007.2 |
| 20260510051019 | 11 | 219 | 8.0 | 17.7 | 0.00 | 0.00 | 0.00 | 78 | 1007.0 |
| 20260510050519 | 11 | 259 | 8.0 | 22.5 | 0.00 | 0.00 | 0.00 | 78 | 1007.1 |
| 20260510050018 | 11 | 221 | 8.0 | 22.5 | 0.00 | 0.00 | 0.00 | 78 | 1006.9 |
| 20260510045517 | 11 | 148 | 6.4 | 19.3 | 0.00 | 0.00 | 0.00 | 78 | 1006.9 |
| 20260510045016 | 11 | 253 | 4.8 | 19.3 | 0.00 | 0.00 | 0.00 | 79 | 1006.8 |
| 20260510044514 | 11 | 221 | 3.2 | 14.5 | 0.00 | 0.00 | 0.00 | 79 | 1006.8 |
| 20260510044013 | 11 | 122 | 3.2 | 14.5 | 0.00 | 0.00 | 0.00 | 80 | 1006.8 |
| 20260510043514 | 10 | 151 | 1.6 | 12.9 | 0.00 | 0.00 | 0.00 | 80 | 1006.8 |
| 20260510043012 | 10 | 178 | 3.2 | 9.7 | 0.00 | 0.00 | 0.00 | 80 | 1006.7 |
| 20260510042511 | 10 | 134 | 1.6 | 8.0 | 0.00 | 0.00 | 0.00 | 80 | 1006.7 |
| 20260510042010 | 10 | 228 | 3.2 | 8.0 | 0.00 | 0.00 | 0.00 | 81 | 1006.8 |
| 20260510041509 | 10 | 203 | 1.6 | 6.4 | 0.00 | 0.00 | 0.00 | 81 | 1006.7 |
| 20260510041011 | 10 | 94 | 0.0 | 8.0 | 0.00 | 0.00 | 0.00 | 81 | 1006.5 |
| 20260510040507 | 10 | 94 | 1.6 | 9.7 | 0.00 | 0.00 | 0.00 | 81 | 1006.3 |
| 20260510040006 | 10 | 125 | 1.6 | 9.7 | 0.00 | 0.00 | 0.00 | 81 | 1006.2 |
| 20260510035505 | 10 | 150 | 1.6 | 11.3 | 0.00 | 0.00 | 0.00 | 81 | 1006.2 |
| 20260510035005 | 10 | 140 | 1.6 | 12.9 | 0.00 | 0.00 | 0.00 | 80 | 1006.3 |
| 20260510034504 | 10 | 195 | 3.2 | 8.0 | 0.00 | 0.00 | 0.00 | 80 | 1006.4 |
| 20260510034003 | 10 | 126 | 1.6 | 4.8 | 0.00 | 0.00 | 0.00 | 80 | 1006.6 |
| 20260510033504 | 10 | 225 | 1.6 | 4.8 | 0.00 | 0.00 | 0.00 | 80 | 1006.8 |
| 20260510033003 | 10 | 225 | 1.6 | 4.8 | 0.00 | 0.00 | 0.00 | 80 | 1006.9 |
| 20260510032502 | 10 | 242 | 1.6 | 4.8 | 0.00 | 0.00 | 0.00 | 80 | 1006.9 |
| 20260510032004 | 10 | 208 | 1.6 | 9.7 | 0.00 | 0.00 | 0.00 | 79 | 1007.0 |
| 20260510031502 | 10 | 238 | 3.2 | 9.7 | 0.00 | 0.00 | 0.00 | 79 | 1007.0 |
| 20260510031002 | 10 | 207 | 1.6 | 9.7 | 0.00 | 0.00 | 0.00 | 79 | 1006.9 |
| 20260510030502 | 10 | 207 | 1.6 | 11.3 | 0.00 | 0.00 | 0.00 | 79 | 1006.8 |
| 20260510030001 | 11 | 249 | 1.6 | 11.3 | 0.00 | 0.00 | 0.00 | 79 | 1006.9 |
| 20260510025601 | 11 | 223 | 1.6 | 6.4 | 0.00 | 0.00 | 0.00 | 78 | 1006.9 |
| 20260510025100 | 11 | 214 | 3.2 | 9.7 | 0.00 | 0.00 | 0.00 | 78 | 1007.0 |
| 20260510024601 | 11 | 221 | 4.8 | 9.7 | 0.00 | 0.00 | 0.00 | 78 | 1007.1 |
| 20260510024059 | 11 | 244 | 1.6 | 9.7 | 0.00 | 0.00 | 0.00 | 78 | 1007.0 |
| 20260510023559 | 11 | 237 | 1.6 | 11.3 | 0.00 | 0.00 | 0.00 | 78 | 1007.0 |
| 20260510023059 | 11 | 126 | 3.2 | 11.3 | 0.00 | 0.00 | 0.00 | 78 | 1007.1 |
| 20260510022559 | 11 | 108 | 3.2 | 12.9 | 0.00 | 0.00 | 0.00 | 78 | 1007.1 |
| 20260510022059 | 11 | 139 | 3.2 | 14.5 | 0.00 | 0.00 | 0.00 | 77 | 1006.9 |
| 20260510021559 | 11 | 122 | 4.8 | 14.5 | 0.00 | 0.00 | 0.00 | 77 | 1006.9 |
| 20260510021058 | 11 | 113 | 4.8 | 11.3 | 0.00 | 0.00 | 0.00 | 77 | 1006.8 |
| 20260510020558 | 11 | 51 | 3.2 | 14.5 | 0.00 | 0.00 | 0.00 | 77 | 1006.9 |
| 20260510020057 | 11 | 130 | 4.8 | 12.9 | 0.00 | 0.00 | 0.00 | 77 | 1007.1 |
| 20260510015556 | 11 | 159 | 3.2 | 16.1 | 0.00 | 0.00 | 0.00 | 77 | 1007.2 |
| 20260510015055 | 11 | 105 | 4.8 | 16.1 | 0.00 | 0.00 | 0.00 | 76 | 1007.1 |
| 20260510014600 | 11 | 236 | 4.8 | 12.9 | 0.00 | 0.00 | 0.00 | 77 | 1007.3 |
| 20260510014055 | 11 | 238 | 3.2 | 12.9 | 0.00 | 0.00 | 0.00 | 76 | 1007.2 |
| 20260510013555 | 11 | 207 | 4.8 | 12.9 | 0.00 | 0.00 | 0.00 | 76 | 1007.2 |
| 20260510013109 | 11 | 194 | 3.2 | 14.5 | 0.00 | 0.00 | 0.00 | 76 | 1007.2 |
| 20260510012554 | 11 | 130 | 3.2 | 14.5 | 0.00 | 0.00 | 0.00 | 76 | 1007.4 |
| 20260510012054 | 11 | 200 | 1.6 | 14.5 | 0.00 | 0.00 | 0.00 | 76 | 1007.4 |
| 20260510011554 | 11 | 164 | 1.6 | 9.7 | 0.00 | 0.00 | 0.00 | 76 | 1007.3 |
| 20260510011053 | 11 | 105 | 3.2 | 8.0 | 0.00 | 0.00 | 0.00 | 76 | 1007.4 |
| 20260510010553 | 10 | 239 | 1.6 | 8.0 | 0.00 | 0.00 | 0.00 | 76 | 1007.4 |
| 20260510010053 | 10 | 250 | 3.2 | 8.0 | 0.00 | 0.00 | 0.00 | 76 | 1007.3 |
| 20260510005553 | 10 | 164 | 3.2 | 11.3 | 0.00 | 0.00 | 0.00 | 76 | 1007.5 |
| 20260510005052 | 10 | 144 | 1.6 | 16.1 | 0.00 | 0.00 | 0.00 | 76 | 1007.5 |
| 20260510004554 | 10 | 163 | 4.8 | 16.1 | 0.00 | 0.00 | 0.00 | 76 | 1007.5 |
| 20260510004052 | 10 | 180 | 1.6 | 8.0 | 0.00 | 0.00 | 0.00 | 76 | 1007.6 |
| 20260510003552 | 10 | 138 | 3.2 | 9.7 | 0.00 | 0.00 | 0.00 | 76 | 1007.7 |
| 20260510003054 | 10 | 223 | 3.2 | 9.7 | 0.00 | 0.00 | 0.00 | 76 | 1007.7 |
| 20260510002551 | 11 | 229 | 1.6 | 9.7 | 0.00 | 0.00 | 0.00 | 76 | 1007.8 |
| 20260510002051 | 11 | 225 | 1.6 | 9.7 | 0.00 | 0.00 | 0.00 | 76 | 1007.6 |
| 20260510001554 | 11 | 134 | 1.6 | 9.7 | 0.00 | 0.00 | 0.00 | 76 | 1007.6 |
| 20260510001051 | 11 | 126 | 1.6 | 11.3 | 0.00 | 0.00 | 0.00 | 76 | 1007.6 |
| 20260510000551 | 11 | 113 | 3.2 | 6.4 | 0.00 | 0.00 | 0.00 | 77 | 1007.6 |
| 20260510000051 | 11 | 228 | 0.0 | 6.4 | 0.00 | 0.00 | 0.00 | 77 | 1007.6 |
| 20260509235550 | 11 | 156 | 1.6 | 6.4 | 0.00 | 0.00 | 0.00 | 77 | 1007.7 |
| 20260509235050 | 11 | 215 | 3.2 | 6.4 | 0.00 | 0.00 | 0.00 | 77 | 1007.7 |
| 20260509234550 | 11 | 222 | 1.6 | 4.8 | 0.00 | 0.00 | 0.00 | 77 | 1007.6 |
| 20260509234050 | 11 | 222 | 1.6 | 6.4 | 0.00 | 0.00 | 0.00 | 76 | 1007.7 |
| 20260509233553 | 11 | 224 | 1.6 | 6.4 | 0.00 | 0.00 | 0.00 | 76 | 1007.7 |
| 20260509233053 | 11 | 231 | 1.6 | 11.3 | 0.00 | 0.00 | 0.00 | 75 | 1007.7 |
| 20260509232551 | 11 | 189 | 1.6 | 11.3 | 0.00 | 0.00 | 0.00 | 75 | 1007.7 |
| 20260509232049 | 11 | 215 | 1.6 | 9.7 | 0.00 | 0.00 | 0.00 | 75 | 1007.7 |
| 20260509231556 | 11 | 212 | 1.6 | 9.7 | 0.00 | 0.00 | 0.00 | 75 | 1007.6 |
| 20260509231049 | 11 | 145 | 3.2 | 11.3 | 0.00 | 0.00 | 0.00 | 74 | 1007.7 |
| 20260509230549 | 11 | 90 | 3.2 | 8.0 | 0.00 | 0.00 | 0.00 | 74 | 1007.6 |
| 20260509230049 | 11 | 222 | 1.6 | 9.7 | 0.00 | 0.00 | 0.00 | 74 | 1007.5 |
| 20260509225549 | 11 | 209 | 3.2 | 19.3 | 0.00 | 0.00 | 0.00 | 73 | 1007.5 |
| 20260509225047 | 11 | 238 | 3.2 | 12.9 | 0.00 | 0.00 | 0.00 | 73 | 1007.6 |
| 20260509224547 | 11 | 116 | 3.2 | 11.3 | 0.00 | 0.00 | 0.00 | 73 | 1007.6 |
| 20260509224046 | 11 | 111 | 3.2 | 11.3 | 0.00 | 0.00 | 0.00 | 73 | 1007.6 |
| 20260509223546 | 11 | 104 | 1.6 | 11.3 | 0.00 | 0.00 | 0.00 | 73 | 1007.7 |
| 20260509223046 | 11 | 148 | 1.6 | 11.3 | 0.00 | 0.00 | 0.00 | 73 | 1007.7 |
| 20260509222546 | 11 | 146 | 3.2 | 14.5 | 0.00 | 0.00 | 0.00 | 73 | 1007.7 |
| 20260509222045 | 11 | 78 | 4.8 | 14.5 | 0.00 | 0.00 | 0.00 | 73 | 1007.8 |
| 20260509221545 | 11 | 136 | 4.8 | 12.9 | 0.00 | 0.00 | 0.00 | 73 | 1007.9 |
| 20260509221045 | 11 | 138 | 1.6 | 14.5 | 0.00 | 0.00 | 0.00 | 73 | 1007.9 |
| 20260509220544 | 11 | 122 | 1.6 | 17.7 | 0.00 | 0.00 | 0.00 | 73 | 1007.9 |
| 20260509220051 | 11 | 169 | 4.8 | 17.7 | 0.00 | 0.00 | 0.00 | 73 | 1007.8 |
| 20260509215545 | 11 | 104 | 4.8 | 16.1 | 0.00 | 0.00 | 0.00 | 72 | 1007.8 |
| 20260509215044 | 11 | 183 | 3.2 | 16.1 | 0.00 | 0.00 | 0.00 | 73 | 1007.8 |
| 20260509214544 | 11 | 269 | 1.6 | 17.7 | 0.00 | 0.00 | 0.00 | 73 | 1007.8 |
| 20260509214045 | 11 | 171 | 3.2 | 17.7 | 0.00 | 0.00 | 0.00 | 72 | 1008.0 |
| 20260509213542 | 11 | 157 | 6.4 | 14.5 | 0.00 | 0.00 | 0.00 | 72 | 1008.0 |
| 20260509213042 | 11 | 119 | 4.8 | 12.9 | 0.00 | 0.00 | 0.00 | 72 | 1008.1 |
| 20260509212544 | 11 | 105 | 3.2 | 17.7 | 0.00 | 0.00 | 0.00 | 72 | 1008.0 |
| 20260509212041 | 11 | 126 | 4.8 | 17.7 | 0.00 | 0.00 | 0.00 | 72 | 1008.1 |
| 20260509211546 | 11 | 221 | 3.2 | 16.1 | 0.00 | 0.00 | 0.00 | 71 | 1008.1 |
| 20260509211042 | 11 | 247 | 4.8 | 19.3 | 0.00 | 0.00 | 0.00 | 71 | 1008.2 |
| 20260509210540 | 11 | 107 | 3.2 | 19.3 | 0.00 | 0.00 | 0.00 | 71 | 1008.2 |
| 20260509210041 | 11 | 93 | 1.6 | 11.3 | 0.00 | 0.00 | 0.00 | 71 | 1008.3 |
| 20260509205539 | 11 | 171 | 4.8 | 16.1 | 0.00 | 0.00 | 0.00 | 70 | 1008.3 |
| 20260509205040 | 11 | 223 | 6.4 | 16.1 | 0.00 | 0.00 | 0.00 | 70 | 1008.3 |
| 20260509204538 | 11 | 105 | 3.2 | 14.5 | 0.00 | 0.00 | 0.00 | 69 | 1008.2 |
| 20260509204038 | 11 | 44 | 1.6 | 11.3 | 0.00 | 0.00 | 0.00 | 68 | 1008.3 |
| 20260509203537 | 11 | 98 | 6.4 | 19.3 | 0.00 | 0.00 | 0.00 | 68 | 1008.3 |
| 20260509203037 | 12 | 126 | 4.8 | 19.3 | 0.00 | 0.00 | 0.00 | 68 | 1008.5 |
| 20260509202537 | 12 | 255 | 4.8 | 17.7 | 0.00 | 0.00 | 0.00 | 68 | 1008.4 |
| 20260509202041 | 12 | 254 | 4.8 | 19.3 | 0.00 | 0.00 | 0.00 | 68 | 1008.4 |
| 20260509201537 | 12 | 226 | 8.0 | 19.3 | 0.00 | 0.00 | 0.00 | 66 | 1008.4 |
| 20260509201036 | 12 | 234 | 6.4 | 14.5 | 0.00 | 0.00 | 0.00 | 65 | 1008.3 |
| 20260509200536 | 12 | 163 | 6.4 | 14.5 | 0.00 | 0.00 | 0.00 | 63 | 1008.3 |
| 20260509200040 | 12 | 234 | 3.2 | 11.3 | 0.00 | 0.00 | 0.00 | 63 | 1008.3 |
| 20260509195540 | 12 | 220 | 4.8 | 16.1 | 0.00 | 0.00 | 0.00 | 63 | 1008.3 |
| 20260509195035 | 12 | 225 | 4.8 | 16.1 | 0.00 | 0.00 | 0.00 | 62 | 1008.4 |
| 20260509194536 | 12 | 219 | 3.2 | 16.1 | 0.00 | 0.00 | 0.00 | 62 | 1008.4 |
| 20260509194034 | 12 | 182 | 4.8 | 17.7 | 0.00 | 0.00 | 0.00 | 62 | 1008.5 |
| 20260509193533 | 12 | 130 | 6.4 | 17.7 | 0.00 | 0.00 | 0.00 | 61 | 1008.5 |
| 20260509193033 | 12 | 231 | 4.8 | 16.1 | 0.00 | 0.00 | 0.00 | 61 | 1008.6 |
| 20260509192534 | 12 | 125 | 3.2 | 19.3 | 0.00 | 0.00 | 0.00 | 61 | 1008.5 |
| 20260509192037 | 12 | 248 | 6.4 | 20.9 | 0.00 | 0.00 | 0.00 | 61 | 1008.6 |
| 20260509191533 | 12 | 214 | 3.2 | 20.9 | 0.00 | 0.00 | 0.00 | 61 | 1008.5 |
| 20260509191033 | 12 | 137 | 8.0 | 17.7 | 0.00 | 0.00 | 0.00 | 60 | 1008.6 |
| 20260509190532 | 12 | 214 | 4.8 | 17.7 | 0.00 | 0.00 | 0.00 | 60 | 1008.5 |
| 20260509190031 | 12 | 117 | 6.4 | 14.5 | 0.00 | 0.00 | 0.00 | 58 | 1008.6 |
| 20260509185531 | 12 | 119 | 4.8 | 16.1 | 0.00 | 0.00 | 0.00 | 58 | 1008.8 |
| 20260509185030 | 12 | 230 | 4.8 | 16.1 | 0.00 | 0.00 | 0.00 | 58 | 1008.9 |
| 20260509184538 | 12 | 242 | 4.8 | 17.7 | 0.00 | 0.00 | 0.00 | 59 | 1008.9 |
| 20260509184029 | 12 | 113 | 6.4 | 16.1 | 0.00 | 0.00 | 0.00 | 57 | 1009.0 |
| 20260509183528 | 13 | 217 | 3.2 | 17.7 | 0.00 | 0.00 | 0.00 | 56 | 1009.0 |
| 20260509183028 | 13 | 215 | 6.4 | 17.7 | 0.00 | 0.00 | 0.00 | 55 | 1009.2 |
| 20260509182529 | 13 | 130 | 1.6 | 20.9 | 0.00 | 0.00 | 0.00 | 56 | 1009.2 |
| 20260509182031 | 13 | 232 | 9.7 | 20.9 | 0.00 | 0.00 | 0.00 | 53 | 1009.2 |
| 20260509181528 | 13 | 132 | 9.7 | 19.3 | 0.00 | 0.00 | 0.00 | 52 | 1009.2 |
| 20260509181029 | 13 | 222 | 8.0 | 19.3 | 0.00 | 0.00 | 0.00 | 52 | 1009.2 |
| 20260509180529 | 13 | 248 | 6.4 | 16.1 | 0.00 | 0.00 | 0.00 | 53 | 1009.1 |
| 20260509180028 | 13 | 219 | 4.8 | 17.7 | 0.00 | 0.00 | 0.00 | 51 | 1009.2 |
| 20260509175529 | 13 | 183 | 6.4 | 17.7 | 0.00 | 0.00 | 0.00 | 49 | 1009.2 |
| 20260509175027 | 13 | 276 | 4.8 | 17.7 | 0.00 | 0.00 | 0.00 | 50 | 1009.3 |
| 20260509174533 | 13 | 250 | 6.4 | 17.7 | 0.00 | 0.00 | 0.00 | 52 | 1009.1 |
| 20260509174030 | 13 | 219 | 9.7 | 20.9 | 0.00 | 0.00 | 0.00 | 50 | 1009.2 |
| 20260509173526 | 13 | 261 | 6.4 | 17.7 | 0.00 | 0.00 | 0.00 | 53 | 1009.1 |
| 20260509173025 | 13 | 248 | 4.8 | 11.3 | 0.00 | 0.00 | 0.00 | 55 | 1009.2 |
| 20260509172525 | 13 | 247 | 4.8 | 12.9 | 0.00 | 0.00 | 0.00 | 56 | 1009.3 |
| 20260509172026 | 13 | 248 | 4.8 | 14.5 | 0.00 | 0.00 | 0.00 | 55 | 1009.3 |
| 20260509171525 | 13 | 228 | 6.4 | 12.9 | 0.00 | 0.00 | 0.00 | 56 | 1009.3 |
| 20260509171024 | 13 | 233 | 8.0 | 12.9 | 0.00 | 0.00 | 0.00 | 52 | 1009.4 |
| 20260509170524 | 13 | 239 | 6.4 | 14.5 | 0.00 | 0.00 | 0.00 | 51 | 1009.4 |
| 20260509170024 | 13 | 257 | 6.4 | 14.5 | 0.00 | 0.00 | 0.00 | 50 | 1009.5 |
| 20260509165522 | 13 | 230 | 4.8 | 9.7 | 0.00 | 0.00 | 0.00 | 52 | 1009.5 |
| 20260509165022 | 13 | 240 | 6.4 | 8.0 | 0.00 | 0.00 | 0.00 | 51 | 1009.6 |
| 20260509164522 | 13 | 234 | 3.2 | 8.0 | 0.00 | 0.00 | 0.00 | 49 | 1009.6 |
| 20260509164024 | 13 | 232 | 4.8 | 11.3 | 0.00 | 0.00 | 0.00 | 49 | 1009.6 |
| 20260509163521 | 13 | 254 | 3.2 | 12.9 | 0.00 | 0.00 | 0.00 | 49 | 1009.7 |
| 20260509163028 | 13 | 245 | 6.4 | 11.3 | 0.00 | 0.00 | 0.00 | 49 | 1009.8 |
| 20260509162520 | 13 | 254 | 6.4 | 11.3 | 0.00 | 0.00 | 0.00 | 47 | 1009.8 |
| 20260509162020 | 14 | 238 | 6.4 | 11.3 | 0.00 | 0.00 | 0.00 | 47 | 1009.9 |
| 20260509161519 | 15 | 254 | 4.8 | 9.7 | 0.00 | 0.00 | 0.00 | 46 | 1009.9 |
| 20260509161020 | 15 | 225 | 4.8 | 14.5 | 0.00 | 0.00 | 0.00 | 46 | 1009.9 |
| 20260509160518 | 15 | 250 | 6.4 | 11.3 | 0.00 | 0.00 | 0.00 | 46 | 1010.0 |
| 20260509160019 | 15 | 244 | 6.4 | 12.9 | 0.00 | 0.00 | 0.00 | 44 | 1010.1 |
| 20260509155516 | 15 | 247 | 8.0 | 12.9 | 0.00 | 0.00 | 0.00 | 42 | 1010.2 |
| 20260509155020 | 16 | 277 | 3.2 | 12.9 | 0.00 | 0.00 | 0.00 | 39 | 1010.2 |
| 20260509154515 | 16 | 219 | 4.8 | 12.9 | 0.00 | 0.00 | 0.00 | 37 | 1010.3 |
| 20260509154018 | 16 | 164 | 3.2 | 8.0 | 0.00 | 0.00 | 0.00 | 39 | 1010.4 |
| 20260509153512 | 15 | 328 | 1.6 | 11.3 | 0.00 | 0.00 | 0.00 | 38 | 1010.5 |
| 20260509153014 | 15 | 118 | 4.8 | 11.3 | 0.00 | 0.00 | 0.00 | 38 | 1010.7 |
| 20260509152510 | 15 | 216 | 4.8 | 9.7 | 0.00 | 0.00 | 0.00 | 39 | 1010.8 |
| 20260509152014 | 15 | 207 | 1.6 | 19.3 | 0.00 | 0.00 | 0.00 | 44 | 1010.8 |
| 20260509151508 | 15 | 69 | 4.8 | 14.5 | 0.00 | 0.00 | 0.00 | 37 | 1010.9 |
| 20260509151007 | 14 | 205 | 4.8 | 14.5 | 0.00 | 0.00 | 0.00 | 40 | 1011.0 |
| 20260509150508 | 14 | 207 | 4.8 | 11.3 | 0.00 | 0.00 | 0.00 | 40 | 1011.0 |
| 20260509150006 | 14 | 249 | 3.2 | 11.3 | 0.00 | 0.00 | 0.00 | 38 | 1011.0 |
| 20260509145507 | 14 | 244 | 4.8 | 14.5 | 0.00 | 0.00 | 0.00 | 39 | 1011.0 |
| 20260509145005 | 14 | 233 | 6.4 | 14.5 | 0.00 | 0.00 | 0.00 | 43 | 1011.0 |
| 20260509144503 | 14 | 217 | 6.4 | 16.1 | 0.00 | 0.00 | 0.00 | 41 | 1011.0 |
| 20260509144003 | 14 | 230 | 4.8 | 16.1 | 0.00 | 0.00 | 0.00 | 42 | 1011.1 |
| 20260509143502 | 13 | 206 | 6.4 | 12.9 | 0.00 | 0.00 | 0.00 | 43 | 1011.2 |
| 20260509143003 | 13 | 186 | 4.8 | 20.9 | 0.00 | 0.00 | 0.00 | 40 | 1011.2 |
| 20260509142503 | 13 | 161 | 8.0 | 20.9 | 0.00 | 0.00 | 0.00 | 41 | 1011.3 |
| 20260509142100 | 13 | 117 | 3.2 | 19.3 | 0.00 | 0.00 | 0.00 | 44 | 1011.3 |
| 20260509141608 | 13 | 247 | 8.0 | 19.3 | 0.00 | 0.00 | 0.00 | 42 | 1011.3 |
| 20260509141102 | 13 | 209 | 4.8 | 25.7 | 0.00 | 0.00 | 0.00 | 43 | 1011.3 |
| 20260509140558 | 13 | 225 | 8.0 | 25.7 | 0.00 | 0.00 | 0.00 | 42 | 1011.2 |
| 20260509140104 | 13 | 250 | 4.8 | 20.9 | 0.00 | 0.00 | 0.00 | 43 | 1011.3 |
| 20260509135601 | 13 | 216 | 6.4 | 20.9 | 0.00 | 0.00 | 0.00 | 43 | 1011.3 |
| 20260509135057 | 13 | 227 | 6.4 | 14.5 | 0.00 | 0.00 | 0.00 | 42 | 1011.3 |
| 20260509134557 | 13 | 257 | 4.8 | 11.3 | 0.00 | 0.00 | 0.00 | 43 | 1011.3 |
| 20260509134054 | 13 | 153 | 3.2 | 12.9 | 0.00 | 0.00 | 0.00 | 44 | 1011.3 |
| 20260509133553 | 13 | 122 | 6.4 | 19.3 | 0.00 | 0.00 | 0.00 | 43 | 1011.3 |
| 20260509133053 | 12 | 241 | 4.8 | 19.3 | 0.00 | 0.00 | 0.00 | 44 | 1011.3 |
| 20260509132552 | 12 | 227 | 4.8 | 16.1 | 0.00 | 0.00 | 0.00 | 45 | 1011.3 |
| 20260509132051 | 12 | 229 | 6.4 | 22.5 | 0.00 | 0.00 | 0.00 | 47 | 1011.4 |
| 20260509131549 | 12 | 234 | 6.4 | 22.5 | 0.00 | 0.00 | 0.00 | 45 | 1011.6 |
| 20260509131048 | 12 | 220 | 6.4 | 16.1 | 0.00 | 0.00 | 0.00 | 47 | 1011.6 |
| 20260509130551 | 12 | 226 | 4.8 | 12.9 | 0.00 | 0.00 | 0.00 | 50 | 1011.7 |
| 20260509130049 | 11 | 162 | 4.8 | 17.7 | 0.00 | 0.00 | 0.00 | 49 | 1011.8 |
| 20260509125543 | 11 | 228 | 6.4 | 20.9 | 0.00 | 0.00 | 0.00 | 48 | 1011.8 |
| 20260509125043 | 11 | 266 | 4.8 | 12.9 | 0.00 | 0.00 | 0.00 | 53 | 1011.8 |
| 20260509124541 | 11 | 135 | 3.2 | 14.5 | 0.00 | 0.00 | 0.00 | 48 | 1011.9 |
| 20260509124039 | 10 | 239 | 3.2 | 14.5 | 0.00 | 0.00 | 0.00 | 52 | 1012.0 |
| 20260509123538 | 10 | 171 | 4.8 | 9.7 | 0.00 | 0.00 | 0.00 | 51 | 1012.0 |
| 20260509123045 | 10 | 219 | 1.6 | 8.0 | 0.00 | 0.00 | 0.00 | 54 | 1012.0 |
| 20260509122534 | 10 | 244 | 3.2 | 6.4 | 0.00 | 0.00 | 0.00 | 55 | 1012.0 |
| 20260509122034 | 9 | 238 | 1.6 | 6.4 | 0.00 | 0.00 | 0.00 | 60 | 1011.9 |
| 20260509121531 | 8 | 238 | 1.6 | 11.3 | 0.00 | 0.00 | 0.00 | 56 | 1011.9 |
| 20260509121030 | 8 | 231 | 3.2 | 8.0 | 0.00 | 0.00 | 0.00 | 58 | 1011.9 |
| 20260509120531 | 8 | 227 | 3.2 | 8.0 | 0.00 | 0.00 | 0.00 | 59 | 1011.9 |
| 20260509120028 | 8 | 166 | 1.6 | 4.8 | 0.00 | 0.00 | 0.00 | 57 | 1011.9 |
| 20260509115528 | 7 | 188 | 1.6 | 6.4 | 0.00 | 0.00 | 0.00 | 58 | 1012.0 |
| 20260509115031 | 7 | 219 | 1.6 | 6.4 | 0.00 | 0.00 | 0.00 | 60 | 1012.0 |
| 20260509114525 | 7 | 121 | 1.6 | 8.0 | 0.00 | 0.00 | 0.00 | 61 | 1012.0 |
| 20260509114021 | 6 | 140 | 1.6 | 6.4 | 0.00 | 0.00 | 0.00 | 64 | 1012.0 |
| 20260509113520 | 6 | 138 | 1.6 | 4.8 | 0.00 | 0.00 | 0.00 | 65 | 1012.1 |
| 20260509113019 | 5 | 205 | 1.6 | 3.2 | 0.00 | 0.00 | 0.00 | 66 | 1012.1 |
| 20260509112518 | 5 | 209 | 0.0 | 3.2 | 0.00 | 0.00 | 0.00 | 68 | 1012.1 |
| 20260509112018 | 5 | 211 | 1.6 | 4.8 | 0.00 | 0.00 | 0.00 | 69 | 1012.1 |
| 20260509111529 | 4 | 211 | 1.6 | 4.8 | 0.00 | 0.00 | 0.00 | 70 | 1012.0 |
| 20260509111018 | 3 | 211 | 0.0 | 3.2 | 0.00 | 0.00 | 0.00 | 70 | 1012.0 |
| 20260509110518 | 3 | 211 | 1.6 | 3.2 | 0.00 | 0.00 | 0.00 | 72 | 1012.0 |
| 20260509110018 | 3 | 211 | 0.0 | 3.2 | 0.00 | 0.00 | 0.00 | 73 | 1012.1 |
| 20260509105517 | 3 | 211 | 0.0 | 4.8 | 0.00 | 0.00 | 0.00 | 73 | 1012.0 |
| 20260509105016 | 3 | 211 | 1.6 | 3.2 | 0.00 | 0.00 | 0.00 | 74 | 1012.1 |
| 20260509104525 | 2 | 211 | 1.6 | 3.2 | 0.00 | 0.00 | 0.00 | 76 | 1012.1 |
| 20260509104014 | 2 | 211 | 0.0 | 3.2 | 0.00 | 0.00 | 0.00 | 74 | 1012.1 |
| 20260509103514 | 2 | 211 | 0.0 | 3.2 | 0.00 | 0.00 | 0.00 | 74 | 1012.0 |
| 20260509103012 | 3 | 211 | 1.6 | 3.2 | 0.00 | 0.00 | 0.00 | 73 | 1011.9 |
| 20260509102513 | 3 | 211 | 0.0 | 1.6 | 0.00 | 0.00 | 0.00 | 72 | 1011.9 |
| 20260509102010 | 3 | 211 | 0.0 | 1.6 | 0.00 | 0.00 | 0.00 | 71 | 1011.8 |
| 20260509101510 | 3 | 211 | 0.0 | 3.2 | 0.00 | 0.00 | 0.00 | 68 | 1011.8 |
| 20260509101009 | 3 | 211 | 1.6 | 3.2 | 0.00 | 0.00 | 0.00 | 68 | 1011.8 |